QPF
0.00 0.00 0.00 0.00 0.00 0.00 0.01 0.02 0.01 0.01 0.02 0.04 0.06 0.05 0.06 0.09 0.12 0.11 0.12 0.15 0.13 0.10 0.09 0.06 0.04 0.04 0.05 0.07 0.09 0.09 0.10 0.10 0.09 0.08 0.08 0.08 0.06 0.04 0.03 0.03 0.04 0.03 0.03
0.00 0.00 0.00 0.00 0.00 0.01 0.01 0.01 0.01 0.01 0.01 0.04 0.08 0.06 0.06 0.08 0.10 0.10 0.12 0.14 0.16 0.14 0.11 0.09 0.06 0.05 0.07 0.07 0.08 0.09 0.08 0.09 0.09 0.07 0.09 0.11 0.11 0.08 0.05 0.03 0.02 0.02 0.03
0.00 0.00 0.00 0.00 0.00 0.00 0.01 0.00 0.01 0.01 0.01 0.03 0.08 0.08 0.06 0.07 0.09 0.09 0.09 0.10 0.12 0.13 0.11 0.08 0.08 0.09 0.08 0.08 0.09 0.08 0.09 0.12 0.10 0.09 0.09 0.11 0.14 0.12 0.09 0.05 0.04 0.04 0.05
0.00 0.00 0.00 0.00 0.00 0.00 0.01 0.01 0.02 0.02 0.02 0.04 0.08 0.09 0.06 0.06 0.06 0.06 0.07 0.10 0.13 0.11 0.09 0.08 0.11 0.12 0.09 0.09 0.08 0.08 0.10 0.11 0.13 0.14 0.13 0.14 0.13 0.11 0.10 0.09 0.08 0.07 0.05
0.00 0.01 0.01 0.01 0.01 0.02 0.07 0.06 0.06 0.05 0.04 0.04 0.07 0.10 0.07 0.06 0.05 0.05 0.08 0.12 0.12 0.08 0.07 0.07 0.09 0.11 0.11 0.11 0.10 0.09 0.09 0.07 0.09 0.11 0.13 0.12 0.10 0.07 0.07 0.07 0.07 0.06 0.03
0.00 0.00 0.01 0.01 0.01 0.03 0.11 0.13 0.09 0.08 0.05 0.05 0.05 0.09 0.08 0.06 0.06 0.05 0.06 0.09 0.09 0.07 0.07 0.07 0.08 0.09 0.09 0.10 0.10 0.08 0.07 0.09 0.09 0.08 0.07 0.08 0.06 0.06 0.07 0.05 0.05 0.05 0.03
0.00 0.00 0.01 0.01 0.01 0.02 0.03 0.06 0.06 0.05 0.04 0.04 0.05 0.07 0.11 0.09 0.06 0.06 0.06 0.08 0.08 0.08 0.08 0.07 0.08 0.08 0.08 0.07 0.07 0.06 0.06 0.07 0.07 0.06 0.05 0.06 0.06 0.07 0.07 0.06 0.05 0.04 0.02
0.00 0.00 0.00 0.01 0.01 0.02 0.02 0.01 0.02 0.02 0.04 0.04 0.04 0.05 0.06 0.10 0.10 0.10 0.08 0.09 0.11 0.11 0.11 0.11 0.09 0.08 0.07 0.05 0.06 0.05 0.04 0.04 0.04 0.04 0.05 0.05 0.05 0.07 0.07 0.08 0.08 0.07 0.05
0.00 0.00 0.01 0.01 0.02 0.02 0.01 0.01 0.01 0.01 0.02 0.03 0.03 0.03 0.03 0.04 0.06 0.11 0.11 0.08 0.07 0.07 0.10 0.15 0.18 0.16 0.12 0.07 0.05 0.04 0.05 0.05 0.05 0.05 0.06 0.06 0.07 0.08 0.08 0.09 0.10 0.09 0.07
0.00 0.01 0.01 0.01 0.01 0.01 0.01 0.01 0.01 0.01 0.01 0.01 0.01 0.02 0.03 0.04 0.03 0.06 0.10 0.09 0.07 0.07 0.07 0.09 0.14 0.17 0.17 0.13 0.09 0.06 0.06 0.06 0.06 0.06 0.07 0.07 0.06 0.06 0.06 0.07 0.09 0.08 0.07
0.00 0.00 0.01 0.01 0.01 0.00 0.01 0.01 0.02 0.01 0.01 0.02 0.02 0.03 0.03 0.03 0.03 0.03 0.05 0.08 0.08 0.08 0.08 0.09 0.10 0.11 0.12 0.12 0.13 0.13 0.10 0.08 0.07 0.06 0.07 0.08 0.09 0.09 0.10 0.10 0.09 0.08 0.07
0.00 0.00 0.01 0.01 0.01 0.01 0.01 0.01 0.01 0.01 0.01 0.01 0.02 0.03 0.03 0.03 0.03 0.03 0.04 0.06 0.08 0.08 0.08 0.08 0.08 0.08 0.08 0.08 0.09 0.11 0.12 0.12 0.10 0.08 0.08 0.09 0.12 0.14 0.15 0.15 0.12 0.10 0.08
0.00 0.00 0.01 0.01 0.02 0.02 0.00 0.00 0.01 0.01 0.00 0.01 0.01 0.02 0.03 0.03 0.04 0.05 0.05 0.06 0.07 0.06 0.07 0.07 0.06 0.07 0.07 0.07 0.07 0.07 0.08 0.08 0.08 0.09 0.10 0.09 0.12 0.11 0.10 0.09 0.09 0.07 0.07
0.00 0.01 0.01 0.01 0.02 0.03 0.01 0.00 0.00 0.00 0.00 0.01 0.01 0.01 0.02 0.02 0.02 0.03 0.05 0.05 0.06 0.06 0.06 0.05 0.05 0.05 0.06 0.06 0.06 0.06 0.06 0.06 0.04 0.04 0.04 0.05 0.07 0.07 0.08 0.08 0.08 0.09 0.08
0.00 0.00 0.00 0.01 0.02 0.03 0.03 0.01 0.00 0.00 0.00 0.00 0.00 0.01 0.02 0.02 0.02 0.02 0.03 0.03 0.03 0.05 0.05 0.04 0.03 0.03 0.02 0.02 0.02 0.03 0.03 0.04 0.03 0.03 0.03 0.03 0.04 0.05 0.05 0.04 0.06 0.07 0.07
0.00 0.00 0.00 0.01 0.01 0.03 0.04 0.02 0.01 0.01 0.01 0.00 0.00 0.00 0.01 0.01 0.01 0.01 0.01 0.02 0.02 0.03 0.03 0.03 0.03 0.02 0.01 0.02 0.02 0.02 0.02 0.03 0.03 0.03 0.04 0.04 0.03 0.03 0.03 0.03 0.04 0.05 0.05
0.00 0.00 0.00 0.01 0.02 0.04 0.05 0.05 0.03 0.02 0.02 0.01 0.01 0.00 0.00 0.01 0.01 0.01 0.01 0.02 0.02 0.02 0.02 0.02 0.02 0.02 0.02 0.03 0.04 0.04 0.03 0.03 0.03 0.03 0.04 0.04 0.03 0.02 0.02 0.03 0.03 0.04 0.04
0.00 0.00 0.01 0.02 0.03 0.04 0.04 0.05 0.06 0.05 0.04 0.02 0.01 0.01 0.01 0.01 0.01 0.01 0.01 0.01 0.01 0.02 0.02 0.02 0.03 0.04 0.05 0.06 0.06 0.05 0.04 0.03 0.03 0.03 0.04 0.05 0.05 0.03 0.03 0.02 0.02 0.02 0.02
0.00 0.01 0.01 0.01 0.03 0.03 0.01 0.01 0.01 0.02 0.04 0.03 0.01 0.01 0.01 0.01 0.01 0.01 0.01 0.01 0.02 0.04 0.06 0.06 0.05 0.05 0.07 0.08 0.07 0.05 0.03 0.03 0.03 0.03 0.03 0.04 0.04 0.03 0.03 0.03 0.02 0.02 0.02
0.01 0.01 0.01 0.01 0.02 0.02 0.02 0.01 0.01 0.01 0.01 0.02 0.02 0.01 0.01 0.01 0.01 0.01 0.01 0.01 0.01 0.02 0.03 0.05 0.05 0.05 0.04 0.04 0.03 0.02 0.02 0.03 0.02 0.03 0.04 0.05 0.05 0.05 0.05 0.04 0.03 0.03 0.02
0.01 0.01 0.01 0.01 0.01 0.01 0.01 0.01 0.02 0.02 0.01 0.01 0.01 0.01 0.01 0.02 0.02 0.01 0.01 0.01 0.01 0.01 0.01 0.02 0.02 0.03 0.03 0.03 0.03 0.02 0.03 0.03 0.02 0.02 0.02 0.03 0.04 0.06 0.06 0.05 0.03 0.03 0.03
0.02 0.02 0.02 0.01 0.01 0.01 0.01 0.02 0.03 0.03 0.02 0.02 0.02 0.01 0.01 0.01 0.02 0.02 0.02 0.01 0.01 0.01 0.02 0.02 0.03 0.03 0.03 0.03 0.03 0.02 0.02 0.02 0.03 0.03 0.03 0.03 0.04 0.04 0.06 0.06 0.05 0.04 0.04
0.02 0.02 0.02 0.02 0.02 0.02 0.02 0.03 0.04 0.04 0.03 0.02 0.02 0.01 0.01 0.01 0.01 0.02 0.02 0.02 0.02 0.03 0.03 0.03 0.05 0.06 0.05 0.05 0.04 0.03 0.03 0.03 0.02 0.03 0.04 0.04 0.03 0.03 0.03 0.04 0.06 0.07 0.07
0.02 0.03 0.02 0.02 0.02 0.01 0.02 0.03 0.04 0.04 0.05 0.04 0.02 0.01 0.01 0.01 0.02 0.02 0.02 0.02 0.03 0.04 0.05 0.06 0.06 0.05 0.04 0.03 0.03 0.03 0.03 0.03 0.02 0.02 0.03 0.04 0.04 0.04 0.02 0.02 0.03 0.03 0.03
0.02 0.02 0.02 0.02 0.02 0.02 0.02 0.02 0.03 0.04 0.05 0.05 0.04 0.03 0.03 0.03 0.04 0.03 0.03 0.03 0.04 0.05 0.05 0.05 0.04 0.04 0.03 0.03 0.03 0.03 0.02 0.02 0.03 0.02 0.02 0.03 0.04 0.04 0.03 0.02 0.03 0.04 0.04
0.02 0.02 0.03 0.03 0.03 0.02 0.02 0.02 0.01 0.01 0.01 0.02 0.02 0.02 0.03 0.03 0.03 0.04 0.04 0.05 0.05 0.05 0.06 0.06 0.05 0.05 0.04 0.03 0.03 0.02 0.03 0.04 0.04 0.04 0.03 0.04 0.04 0.04 0.03 0.03 0.03 0.04 0.04
MSLP
1013.39 1013.95 1014.43 1014.83 1015.15 1015.41 1015.64 1015.88 1016.14 1016.43 1016.75 1017.06 1017.36 1017.62 1017.84 1018.01 1018.13 1018.23 1018.31 1018.39 1018.47 1018.56 1018.66 1018.76 1018.86 1018.95 1019.04 1019.11 1019.16 1019.18 1019.17 1019.10 1018.97 1018.76 1018.49 1018.16 1017.77 1017.37 1016.96 1016.58 1016.25 1015.99 1015.81
1013.06 1013.69 1014.25 1014.71 1015.07 1015.35 1015.60 1015.84 1016.09 1016.37 1016.68 1016.98 1017.26 1017.50 1017.68 1017.80 1017.87 1017.90 1017.91 1017.94 1017.99 1018.06 1018.17 1018.28 1018.40 1018.51 1018.60 1018.67 1018.70 1018.70 1018.66 1018.57 1018.44 1018.26 1018.02 1017.74 1017.41 1017.04 1016.66 1016.27 1015.91 1015.58 1015.32
1012.62 1013.32 1013.96 1014.48 1014.90 1015.23 1015.51 1015.77 1016.04 1016.33 1016.65 1016.95 1017.23 1017.45 1017.59 1017.65 1017.64 1017.59 1017.53 1017.48 1017.47 1017.50 1017.58 1017.70 1017.83 1017.95 1018.05 1018.12 1018.14 1018.12 1018.07 1017.98 1017.86 1017.71 1017.53 1017.31 1017.05 1016.75 1016.41 1016.04 1015.66 1015.29 1014.95
1012.03 1012.80 1013.50 1014.10 1014.59 1014.98 1015.31 1015.61 1015.92 1016.24 1016.58 1016.91 1017.20 1017.41 1017.52 1017.53 1017.46 1017.33 1017.18 1017.04 1016.96 1016.94 1016.99 1017.09 1017.21 1017.34 1017.45 1017.52 1017.54 1017.52 1017.46 1017.38 1017.29 1017.18 1017.06 1016.92 1016.74 1016.51 1016.23 1015.90 1015.52 1015.12 1014.71
1011.29 1012.11 1012.88 1013.54 1014.10 1014.55 1014.94 1015.29 1015.65 1016.02 1016.40 1016.77 1017.09 1017.31 1017.42 1017.41 1017.29 1017.10 1016.88 1016.67 1016.51 1016.44 1016.44 1016.51 1016.62 1016.75 1016.85 1016.92 1016.94 1016.92 1016.87 1016.81 1016.74 1016.69 1016.63 1016.57 1016.47 1016.33 1016.11 1015.83 1015.47 1015.05 1014.60
1010.46 1011.30 1012.11 1012.83 1013.44 1013.95 1014.38 1014.78 1015.19 1015.61 1016.05 1016.47 1016.83 1017.10 1017.24 1017.24 1017.11 1016.89 1016.62 1016.37 1016.16 1016.03 1015.99 1016.02 1016.11 1016.22 1016.32 1016.38 1016.40 1016.38 1016.34 1016.29 1016.25 1016.24 1016.24 1016.25 1016.23 1016.17 1016.02 1015.79 1015.46 1015.05 1014.59
1009.64 1010.47 1011.29 1012.03 1012.67 1013.20 1013.67 1014.11 1014.55 1015.01 1015.50 1015.98 1016.40 1016.73 1016.93 1016.98 1016.88 1016.68 1016.41 1016.13 1015.90 1015.73 1015.65 1015.66 1015.72 1015.80 1015.88 1015.93 1015.94 1015.91 1015.87 1015.83 1015.82 1015.84 1015.89 1015.95 1016.00 1016.00 1015.92 1015.75 1015.46 1015.08 1014.62
1008.92 1009.73 1010.53 1011.27 1011.90 1012.43 1012.90 1013.34 1013.80 1014.29 1014.81 1015.34 1015.83 1016.23 1016.51 1016.63 1016.61 1016.46 1016.23 1015.97 1015.73 1015.55 1015.45 1015.42 1015.45 1015.50 1015.55 1015.58 1015.57 1015.53 1015.49 1015.45 1015.44 1015.48 1015.55 1015.65 1015.75 1015.80 1015.78 1015.66 1015.43 1015.10 1014.68
1008.41 1009.18 1009.94 1010.64 1011.23 1011.74 1012.17 1012.60 1013.04 1013.53 1014.07 1014.64 1015.18 1015.66 1016.02 1016.24 1016.30 1016.24 1016.08 1015.87 1015.66 1015.49 1015.37 1015.32 1015.32 1015.34 1015.36 1015.35 1015.32 1015.26 1015.20 1015.15 1015.14 1015.17 1015.25 1015.36 1015.48 1015.57 1015.60 1015.54 1015.37 1015.09 1014.74
1008.16 1008.87 1009.58 1010.21 1010.75 1011.20 1011.59 1011.98 1012.39 1012.86 1013.40 1013.98 1014.57 1015.10 1015.54 1015.85 1016.01 1016.04 1015.96 1015.82 1015.66 1015.52 1015.41 1015.35 1015.32 1015.31 1015.29 1015.26 1015.20 1015.11 1015.02 1014.95 1014.92 1014.93 1015.00 1015.11 1015.23 1015.34 1015.39 1015.37 1015.26 1015.06 1014.78
1008.11 1008.78 1009.42 1010.00 1010.48 1010.87 1011.21 1011.54 1011.92 1012.36 1012.88 1013.46 1014.07 1014.64 1015.14 1015.52 1015.77 1015.89 1015.90 1015.84 1015.74 1015.63 1015.54 1015.48 1015.44 1015.40 1015.36 1015.29 1015.20 1015.09 1014.98 1014.88 1014.81 1014.80 1014.83 1014.92 1015.02 1015.13 1015.20 1015.21 1015.15 1015.02 1014.82
1008.19 1008.80 1009.39 1009.91 1010.34 1010.69 1011.00 1011.30 1011.64 1012.06 1012.56 1013.13 1013.73 1014.32 1014.86 1015.29 1015.61 1015.80 1015.89 1015.90 1015.85 1015.79 1015.73 1015.68 1015.63 1015.59 1015.53 1015.44 1015.33 1015.19 1015.06 1014.93 1014.83 1014.78 1014.78 1014.83 1014.90 1014.99 1015.06 1015.10 1015.08 1015.01 1014.87
1008.24 1008.81 1009.36 1009.85 1010.25 1010.58 1010.88 1011.17 1011.51 1011.93 1012.42 1012.97 1013.57 1014.16 1014.70 1015.16 1015.52 1015.77 1015.91 1015.98 1015.99 1015.97 1015.94 1015.91 1015.87 1015.82 1015.75 1015.66 1015.54 1015.39 1015.24 1015.09 1014.97 1014.89 1014.85 1014.86 1014.91 1014.97 1015.03 1015.07 1015.07 1015.04 1014.96
1008.15 1008.70 1009.22 1009.69 1010.09 1010.44 1010.77 1011.10 1011.46 1011.89 1012.39 1012.95 1013.53 1014.11 1014.65 1015.11 1015.48 1015.76 1015.94 1016.05 1016.10 1016.12 1016.12 1016.11 1016.09 1016.05 1015.99 1015.90 1015.77 1015.63 1015.47 1015.32 1015.19 1015.09 1015.03 1015.01 1015.03 1015.06 1015.10 1015.14 1015.15 1015.14 1015.09
1007.87 1008.38 1008.89 1009.36 1009.79 1010.20 1010.58 1010.98 1011.41 1011.88 1012.41 1012.97 1013.55 1014.12 1014.64 1015.09 1015.46 1015.74 1015.94 1016.07 1016.15 1016.20 1016.23 1016.24 1016.23 1016.21 1016.16 1016.08 1015.97 1015.84 1015.70 1015.56 1015.43 1015.34 1015.27 1015.24 1015.24 1015.25 1015.28 1015.30 1015.30 1015.29 1015.26
1007.39 1007.87 1008.37 1008.86 1009.34 1009.81 1010.28 1010.77 1011.28 1011.83 1012.40 1012.99 1013.57 1014.12 1014.62 1015.05 1015.40 1015.67 1015.87 1016.01 1016.10 1016.17 1016.22 1016.24 1016.25 1016.24 1016.20 1016.14 1016.05 1015.94 1015.83 1015.72 1015.63 1015.56 1015.51 1015.49 1015.49 1015.50 1015.51 1015.51 1015.50 1015.47 1015.42
1006.80 1007.25 1007.74 1008.25 1008.78 1009.33 1009.89 1010.47 1011.08 1011.70 1012.32 1012.94 1013.52 1014.06 1014.53 1014.93 1015.26 1015.51 1015.69 1015.83 1015.93 1016.00 1016.05 1016.09 1016.10 1016.10 1016.07 1016.02 1015.96 1015.89 1015.82 1015.75 1015.71 1015.68 1015.68 1015.69 1015.71 1015.73 1015.73 1015.72 1015.69 1015.64 1015.56
1006.21 1006.63 1007.10 1007.63 1008.20 1008.81 1009.45 1010.11 1010.80 1011.48 1012.15 1012.78 1013.37 1013.89 1014.34 1014.71 1015.01 1015.24 1015.41 1015.53 1015.63 1015.70 1015.74 1015.78 1015.79 1015.78 1015.76 1015.73 1015.69 1015.65 1015.62 1015.61 1015.62 1015.66 1015.71 1015.77 1015.83 1015.87 1015.89 1015.87 1015.82 1015.73 1015.60
1005.74 1006.12 1006.57 1007.10 1007.69 1008.34 1009.02 1009.74 1010.47 1011.19 1011.89 1012.53 1013.11 1013.62 1014.04 1014.39 1014.66 1014.86 1015.01 1015.13 1015.21 1015.27 1015.31 1015.34 1015.34 1015.33 1015.30 1015.28 1015.25 1015.24 1015.25 1015.29 1015.37 1015.47 1015.59 1015.70 1015.81 1015.89 1015.91 1015.89 1015.82 1015.69 1015.53
1005.45 1005.80 1006.23 1006.74 1007.33 1007.97 1008.67 1009.40 1010.14 1010.87 1011.56 1012.19 1012.76 1013.24 1013.64 1013.96 1014.21 1014.40 1014.54 1014.65 1014.73 1014.78 1014.81 1014.82 1014.82 1014.80 1014.76 1014.74 1014.72 1014.73 1014.77 1014.86 1014.98 1015.14 1015.31 1015.48 1015.63 1015.73 1015.78 1015.75 1015.66 1015.50 1015.30
1005.35 1005.67 1006.08 1006.56 1007.11 1007.73 1008.41 1009.11 1009.82 1010.52 1011.18 1011.78 1012.32 1012.77 1013.15 1013.45 1013.69 1013.88 1014.02 1014.13 1014.21 1014.27 1014.30 1014.31 1014.29 1014.26 1014.23 1014.19 1014.18 1014.20 1014.26 1014.37 1014.52 1014.71 1014.92 1015.12 1015.30 1015.42 1015.47 1015.44 1015.33 1015.15 1014.91
1005.39 1005.69 1006.06 1006.50 1007.01 1007.58 1008.19 1008.84 1009.50 1010.15 1010.75 1011.31 1011.81 1012.23 1012.59 1012.89 1013.12 1013.32 1013.48 1013.61 1013.70 1013.78 1013.82 1013.84 1013.83 1013.80 1013.76 1013.73 1013.71 1013.73 1013.79 1013.91 1014.07 1014.26 1014.47 1014.68 1014.85 1014.97 1015.01 1014.97 1014.85 1014.65 1014.39
1005.49 1005.77 1006.11 1006.50 1006.95 1007.45 1007.99 1008.57 1009.15 1009.73 1010.28 1010.78 1011.24 1011.64 1011.98 1012.28 1012.53 1012.74 1012.93 1013.09 1013.22 1013.33 1013.40 1013.45 1013.46 1013.44 1013.41 1013.38 1013.36 1013.38 1013.42 1013.52 1013.66 1013.83 1014.02 1014.19 1014.34 1014.43 1014.44 1014.38 1014.23 1014.02 1013.74
1005.55 1005.82 1006.12 1006.46 1006.84 1007.27 1007.74 1008.24 1008.74 1009.25 1009.74 1010.19 1010.61 1010.99 1011.33 1011.63 1011.91 1012.15 1012.38 1012.58 1012.76 1012.92 1013.04 1013.12 1013.17 1013.19 1013.18 1013.16 1013.15 1013.15 1013.18 1013.24 1013.33 1013.45 1013.58 1013.70 1013.79 1013.82 1013.80 1013.70 1013.53 1013.30 1013.03
1005.53 1005.77 1006.03 1006.32 1006.65 1007.01 1007.40 1007.82 1008.26 1008.70 1009.14 1009.55 1009.94 1010.31 1010.64 1010.96 1011.26 1011.54 1011.81 1012.06 1012.30 1012.51 1012.69 1012.83 1012.93 1012.99 1013.02 1013.03 1013.02 1013.01 1013.01 1013.03 1013.07 1013.12 1013.18 1013.22 1013.23 1013.20 1013.11 1012.98 1012.78 1012.55 1012.28
1005.41 1005.61 1005.83 1006.07 1006.34 1006.63 1006.96 1007.32 1007.70 1008.09 1008.48 1008.86 1009.23 1009.59 1009.93 1010.25 1010.57 1010.89 1011.20 1011.50 1011.79 1012.05 1012.29 1012.49 1012.65 1012.77 1012.84 1012.88 1012.89 1012.88 1012.86 1012.84 1012.82 1012.80 1012.78 1012.73 1012.67 1012.56 1012.42 1012.24 1012.03 1011.79 1011.54
Thickness
5818 5816 5812 5809 5805 5800 5796 5793 5790 5789 5787 5786 5784 5783 5782 5783 5783 5782 5780 5779 5777 5776 5773 5774 5771 5770 5769 5767 5767 5765 5763 5762 5763 5761 5760 5763 5766 5766 5766 5767 5767 5767 5766
5817 5814 5813 5810 5806 5801 5797 5794 5791 5790 5788 5787 5785 5785 5784 5784 5784 5783 5780 5779 5777 5776 5775 5772 5772 5771 5768 5766 5765 5764 5763 5763 5763 5760 5756 5754 5757 5761 5766 5766 5765 5766 5766
5818 5815 5813 5810 5807 5802 5799 5797 5793 5791 5788 5787 5787 5785 5783 5782 5782 5780 5779 5779 5778 5776 5774 5773 5772 5771 5770 5768 5765 5764 5762 5759 5761 5762 5758 5753 5751 5757 5763 5764 5765 5764 5764
5821 5818 5814 5811 5808 5805 5802 5798 5794 5791 5788 5787 5785 5783 5780 5779 5780 5780 5781 5780 5778 5776 5775 5773 5772 5770 5771 5768 5767 5767 5764 5760 5758 5760 5761 5760 5759 5754 5754 5760 5763 5763 5762
5823 5819 5816 5813 5810 5808 5804 5800 5795 5791 5788 5786 5784 5781 5780 5780 5781 5780 5778 5777 5777 5776 5775 5773 5772 5770 5770 5768 5767 5765 5764 5763 5760 5759 5759 5758 5757 5758 5753 5752 5756 5759 5762
5824 5820 5818 5814 5810 5808 5804 5800 5794 5790 5787 5785 5784 5780 5778 5777 5776 5775 5775 5775 5776 5776 5774 5773 5771 5770 5770 5768 5766 5765 5764 5762 5761 5760 5760 5757 5756 5755 5754 5752 5753 5754 5758
5822 5818 5815 5812 5808 5806 5803 5800 5795 5790 5788 5785 5783 5781 5779 5776 5774 5773 5773 5773 5775 5774 5773 5773 5771 5770 5768 5767 5766 5764 5764 5762 5760 5758 5759 5759 5759 5759 5756 5753 5752 5752 5755
5819 5817 5815 5812 5808 5805 5802 5799 5795 5791 5788 5785 5783 5781 5779 5778 5777 5775 5775 5774 5774 5774 5773 5771 5770 5769 5768 5767 5766 5765 5764 5762 5760 5759 5758 5758 5759 5759 5757 5754 5750 5747 5750
5815 5814 5812 5811 5807 5805 5802 5799 5794 5791 5788 5787 5784 5781 5779 5778 5777 5775 5774 5773 5772 5772 5771 5769 5768 5767 5766 5765 5764 5763 5762 5760 5759 5759 5758 5757 5759 5758 5757 5756 5752 5745 5742
5810 5810 5809 5808 5807 5805 5802 5798 5795 5790 5788 5786 5783 5781 5779 5777 5775 5774 5772 5771 5770 5769 5768 5766 5765 5764 5763 5762 5761 5760 5760 5757 5756 5756 5755 5754 5757 5756 5755 5753 5751 5749 5745
5807 5806 5805 5805 5804 5803 5799 5795 5792 5789 5786 5784 5781 5779 5777 5776 5774 5772 5770 5769 5768 5766 5764 5763 5762 5761 5760 5759 5757 5757 5756 5753 5753 5752 5752 5751 5751 5751 5750 5750 5748 5746 5744
5803 5803 5801 5800 5798 5797 5795 5792 5789 5787 5784 5782 5779 5776 5774 5773 5771 5769 5767 5766 5764 5763 5761 5760 5759 5758 5757 5756 5754 5752 5751 5750 5749 5748 5747 5746 5746 5744 5745 5744 5744 5742 5740
5796 5797 5795 5793 5792 5791 5790 5788 5786 5784 5782 5779 5776 5773 5771 5769 5767 5766 5764 5763 5761 5759 5758 5756 5754 5754 5753 5752 5750 5749 5747 5747 5746 5744 5743 5741 5740 5738 5739 5738 5738 5739 5739
5788 5788 5787 5786 5785 5784 5783 5782 5782 5781 5778 5775 5772 5768 5766 5765 5764 5762 5760 5758 5756 5754 5753 5751 5750 5749 5748 5747 5745 5744 5743 5742 5741 5741 5739 5737 5736 5733 5733 5732 5731 5731 5731
5780 5780 5779 5779 5778 5777 5776 5776 5776 5774 5773 5769 5766 5764 5762 5761 5759 5757 5755 5753 5751 5750 5748 5745 5744 5743 5743 5742 5739 5738 5738 5736 5736 5736 5735 5734 5732 5730 5729 5729 5727 5725 5724
5772 5773 5773 5772 5771 5770 5770 5769 5769 5768 5766 5763 5761 5759 5757 5754 5753 5751 5749 5747 5745 5743 5742 5740 5738 5737 5738 5734 5731 5730 5731 5730 5729 5729 5729 5728 5726 5724 5721 5720 5719 5717 5717
5766 5766 5765 5765 5765 5765 5764 5762 5761 5760 5758 5756 5755 5753 5751 5749 5747 5746 5743 5740 5738 5736 5734 5733 5732 5731 5729 5726 5723 5722 5722 5723 5723 5722 5721 5723 5723 5718 5717 5713 5710 5710 5708
5760 5759 5759 5759 5759 5759 5758 5756 5755 5752 5750 5748 5747 5747 5745 5743 5741 5738 5736 5733 5731 5729 5727 5725 5724 5723 5722 5718 5715 5714 5715 5717 5716 5716 5715 5713 5711 5711 5708 5708 5706 5706 5704
5753 5753 5753 5753 5751 5750 5750 5748 5746 5745 5743 5741 5740 5739 5737 5735 5733 5730 5728 5725 5722 5720 5719 5718 5717 5716 5714 5711 5708 5705 5709 5710 5710 5709 5708 5706 5704 5699 5698 5698 5697 5697 5696
5745 5744 5745 5744 5741 5741 5740 5738 5737 5735 5733 5733 5732 5731 5729 5727 5725 5722 5720 5718 5715 5713 5712 5711 5710 5709 5707 5704 5702 5698 5702 5703 5703 5702 5701 5697 5694 5690 5688 5689 5689 5687 5688
5735 5735 5734 5732 5731 5731 5730 5728 5727 5726 5726 5725 5724 5722 5720 5718 5717 5714 5712 5709 5708 5705 5703 5702 5701 5700 5698 5695 5693 5690 5691 5694 5694 5694 5693 5691 5684 5680 5679 5678 5680 5679 5677
5724 5724 5722 5721 5721 5721 5720 5717 5716 5717 5716 5715 5713 5712 5710 5710 5709 5705 5702 5701 5698 5696 5694 5693 5692 5692 5691 5688 5685 5682 5681 5681 5683 5684 5684 5682 5675 5672 5670 5670 5670 5668 5666
5714 5714 5712 5711 5710 5710 5709 5706 5706 5706 5705 5703 5702 5702 5701 5699 5698 5696 5694 5692 5690 5689 5688 5687 5685 5684 5684 5681 5678 5675 5672 5671 5671 5674 5671 5668 5665 5663 5663 5662 5660 5658 5660
5704 5703 5702 5700 5698 5699 5699 5698 5696 5696 5694 5691 5691 5691 5690 5689 5688 5687 5687 5685 5683 5681 5680 5679 5678 5677 5675 5673 5671 5669 5666 5662 5661 5662 5659 5656 5654 5654 5654 5654 5653 5653 5653
5694 5693 5692 5690 5689 5689 5689 5689 5688 5686 5683 5680 5680 5680 5681 5680 5678 5677 5675 5674 5673 5671 5668 5669 5668 5667 5665 5661 5656 5655 5656 5655 5654 5651 5651 5651 5650 5649 5649 5648 5648 5646 5645
5685 5684 5683 5681 5680 5679 5679 5678 5678 5676 5673 5672 5671 5673 5672 5671 5670 5669 5667 5662 5661 5658 5656 5654 5654 5655 5651 5647 5644 5642 5641 5640 5639 5641 5643 5643 5642 5641 5641 5640 5638 5636 5634